www.pogodaiklimat.ru
ПОГОДА в Хмельницком
Время
(UTC), дата
12 29.05
15 29.05
18 29.05
21 29.05
00 30.05
03 30.05
06 30.05
09 30.05
12 30.05
15 30.05
18 30.05
21 30.05
00 31.05
03 31.05
06 31.05
09 31.05
12 31.05
15 31.05
18 31.05
21 31.05
00 1.06
03 1.06
06 1.06
09 1.06
12 1.06
15 1.06
18 1.06
21 1.06
00 2.06
03 2.06
06 2.06
09 2.06
12 2.06
15 2.06
18 2.06
21 2.06
00 3.06
03 3.06
06 3.06
09 3.06
12 3.06
15 3.06
18 3.06
21 3.06
00 4.06
03 4.06
06 4.06
09 4.06
12 4.06
15 4.06
18 4.06
21 4.06
00 5.06
03 5.06
06 5.06
09 5.06
Ветер
(напр.,м/с)
Видим. Явления Облачность Т
(С)
Тd
(С)
f
(%)
Тe
(С)
Тes
(С)
Комфортность P
(гПа)
Po
(гПа)
Тmin
(С)
Tmax
(С)
R
(мм)
R24
(мм)
S
(см)
С 9 10 км слаб. ливневой дождь 10/6 360 м
[Cb cap Ac und]
+11.5 +10.4 93 +8 +8 по сезону 1012.4 971.2
С 7 4000 м слаб. ливневой дождь 10/8 270 м
[Cb cap Ac und]
+11.4 +10.6 95 +8 +8 по сезону 1011.7 970.6
СЗ 7 4000 м слаб. ливневой дождь 10/8 180 м
[Cb cap Ac und]
+10.6 +10.2 97 +7 +7 по сезону 1011.8 970.5 +12.1 6
СЗ 6 4000 м слаб. дождь 10/8 150 м
[Frnb As op]
+9.9 +9.5 97 +6 +6 по сезону 1011.0 969.7
СЗ 5 4000 м слаб. дождь 10/8 120 м
[Frnb As op]
+9.8 +9.4 97 +6 +6 прохладно 1009.5 968.2
СЗ 5 2000 м слаб. дождь 10/8 120 м
[Frnb As op]
+9.8 +9.4 97 +6 +6 холодно 1008.6 967.3
СЗ 6 4000 м слаб. дождь 10/8 210 м
[Frnb As op]
+9.8 +9.4 97 +6 +6 очень
холодно
1007.4 966.2 +9.4 3
СЗ 6 4000 м слаб. морось {дождь} 10/10 240 м
[St]
+10.6 +10.2 97 +7 +7 очень
холодно
1006.5 965.5
З 7 4000 м слаб. ливневой дождь 10/10 300 м
[Cb calv]
+10.2 +9.4 95 +6 +6 очень
холодно
1006.1 965.0
З 7 10 км слаб. ливневой дождь 10/10 300 м
[Cb calv]
+9.5 +8.9 96 +5 +5 очень
холодно
1005.1 963.9
З 8 4000 м слаб. ливневой дождь 10/10 270 м
[Cb calv]
+9.4 +8.8 96 +5 +5 очень
холодно
1003.6 962.5 +11.0 11
ЮЗ 7 4000 м ливневой дождь 10/10 240 м
[Cb calv]
+9.2 +8.6 96 +5 +5 очень
холодно
1002.5 961.4
ЮЗ 7 10 км слаб. ливневой дождь 10/8 330 м
[Cb calv Ac und]
+9.0 +8.6 97 +5 +5 холодно 1001.3 960.2
ЮЗ 7 4000 м слаб. дождь 10/8 240 м
[Frnb As op]
+8.4 +8.0 97 +4 +4 очень
холодно
1000.6 959.5
Ю 6 4000 м слаб. дождь 10/8 270 м
[Frnb As op]
+8.6 +8.2 97 +4 +5 очень
холодно
1001.2 960.1 +8.0 20
ЮВ 2 10 км слаб. морось {дождь} 10/10 180 м
[St]
+9.8 +9.4 97 +8 +8 очень
холодно
1002.9 961.9
СВ 4 10 км в посл. час дождь {морось} 10/10 480 м
[Cb calv]
+11.4 +9.9 90 +9 +9 очень
холодно
1004.5 963.6
СВ 5 10 км 10/8 600 м
[Cb calv Ac und]
+11.6 +9.9 89 +9 +9 очень
холодно
1006.2 965.3
С 3 10 км 8/6 800 м
[Sc Ac trans]
+10.9 +9.3 90 +9 +9 холодно 1008.1 967.0 +12.4 0.7
СЗ 3 10 км 9/6 800 м
[Sc Ac trans]
+10.1 +9.3 95 +8 +8 холодно 1009.4 968.2
СЗ 4 10 км в посл. час ливневой дождь 9/8 900 м
[Cb calv Ac trans]
+8.9 +8.3 96 +6 +6 холодно 1009.4 968.0
С 7 10 км слаб. ливневой дождь 10/10 270 м
[Cb calv]
+9.2 +8.8 97 +5 +5 очень
холодно
1009.3 967.9
С 7 20 км {ливн. осадки} 8/8 480 м
[Sc]
+10.1 +7.2 82 +6 +7 очень
холодно
1010.7 969.4 +8.7 1
С 6 20 км 9/8 900 м
[Cb calv Ac trans]
+15.2 +7.9 62 +14 +15 прохладно 1010.8 970.2
С 5 20 км в посл. час ливневой дождь 8/6 840 м
[Cb calv Ac trans]
+13.4 +7.6 68 +12 +14 очень
холодно
1010.9 970.0
С 5 10 км слаб. ливневой дождь 10/8 1080 м
[Cb cap Ac und]
+9.6 +6.9 83 +6 +7 очень
холодно
1012.5 971.0
СЗ 3 20 км {ливн. осадки} 5/3 1000 м
[Cb cap Ac trans]
+8.0 +5.1 82 +5 +5 очень
холодно
1012.7 971.0 +15.6 2
СЗ 3 10 км 3/0
[Ac trans]
+5.8 +4.2 89 +2 +2 очень
холодно
1012.9 970.8
З 3 10 км 9/3 1000 м
[Cb cap Ac trans]
+6.4 +3.4 81 +3 +3 очень
холодно
1010.7 968.8
З 4 20 км слаб. ливневой дождь 10/6 1000 м
[Cb cap Ac und]
+7.0 +4.3 83 +3 +3 очень
холодно
1008.4 966.7
З 6 10 км слаб. ливневой дождь 10/6 700 м
[Cb calv Ac und]
+7.5 +6.0 90 +3 +3 очень
холодно
1007.1 965.5 +5.5 2
З 6 10 км слаб. ливневой дождь 10/8 630 м
[Cb calv Ac und]
+8.5 +5.9 84 +5 +5 очень
холодно
1006.8 965.4
З 5 20 км {ливн. осадки} 10/6 480 м
[Cb calv Ac und]
+8.9 +6.4 84 +5 +6 очень
холодно
1006.7 965.4
ЮЗ 5 10 км слаб. ливневой дождь 10/6 540 м
[Cb calv Ac und]
+9.4 +6.7 83 +6 +6 очень
холодно
1005.5 964.3
З 3 20 км {ливн. осадки} 10/8 1000 м
[Cb calv Ac und]
+8.4 +6.5 88 +6 +6 очень
холодно
1005.1 963.8 +11.5 0.8
ЮЗ 3 10 км 10/5 240 м
[Cb calv Ac und]
+7.6 +7.0 96 +5 +5 очень
холодно
1004.4 963.0
ЮЗ 2 10 км слаб. дождь 10/8 180 м
[Frnb As op]
+7.5 +7.1 97 +5 +5 холодно 1003.3 961.9
ЮЗ 3 4000 м слаб. дождь 10/8 150 м
[Frnb As op]
+7.3 +7.1 99 +4 +4 очень
холодно
1002.7 961.3
З 3 20 км {ливн. осадки, дождь} 8/8 450 м
[Cb calv]
+9.1 +7.0 87 +7 +8 очень
холодно
1003.4 962.2 +7.1 4
З 3 20 км 8/8 840 м
[Cu med, cong]
+11.5 +5.8 68 +10 +13 очень
холодно
1003.8 962.9
ЮЗ 4 20 км в посл. час ливневой дождь 5/5 800 м
[Cb calv]
+12.7 +7.2 69 +11 +16 очень
холодно
1003.9 963.2
ЮЗ 3 20 км {ливн. осадки} 8/8 900 м
[Cb calv]
+13.3 +6.1 62 +12 +13 холодно 1003.9 963.3
З 2 20 км {ливн. осадки} 5/3 600 м
[Sc Ci fib]
+11.4 +6.9 74 +10 +10 холодно 1004.8 963.9 +14.4 2
ЮЗ 1 10 км 8/0
[Ac trans]
+8.8 +7.1 89 +8 +8 холодно 1005.5 964.2
ЮЗ 2 10 км 10/0
[Ac und]
+8.5 +7.0 90 +7 +7 прохладно 1005.0 963.7
ЮЗ 2 10 км 3/0
[Ac trans]
+7.8 +7.0 95 +6 +6 холодно 1004.9 963.5
З 4 20 км 4/3 300 м
[St Ac trans]
+12.4 +7.1 70 +11 +14 прохладно 1004.4 963.7 +7.4
ЮЗ 6 20 км 9/9 900 м
[Cb calv]
+16.1 +7.2 56 +15 +16 прохладно 1004.0 963.8
Ю 7 20 км {ливн. осадки} 5/4 600 м
[Cb calv Ac trans]
+17.5 +6.6 49 +17 +19 прохладно 1003.1 963.1
Ю 5 20 км 8/6 1200 м
[Cb calv Ac trans]
+18.7 +7.3 47 +19 +20 по сезону 1002.3 962.5
ЮЗ 5 20 км {гроза} 8/6 1300 м
[Cb calv Ac trans]
+14.3 +10.4 77 +13 +13 прохладно 1003.6 963.2 +19.1 0.0
Ю 3 10 км в посл. час ливневой дождь 9/4 1000 м
[Cb cap Ac trans Cc]
+12.1 +10.4 89 +10 +10 прохладно 1003.8 963.1
Ю 2 10 км в посл. час ливневой дождь 9/4 1000 м
[Cb cap Ac trans Ci fib]
+11.8 +9.9 88 +11 +11 по сезону 1003.5 962.7
Ю 3 20 км 10/5 1200 м
[Cb cap Ac und]
+12.2 +10.7 91 +11 +11 прохладно 1003.2 962.5
Ю 3 20 км 10/6 1200 м
[Cb calv Ac und]
+14.7 +12.2 85 +14 +15 по сезону 1003.7 963.4 +11.1 0.1
Ю 3 20 км слаб. ливневой дождь 10/5 1200 м
[Cb calv Ac und]
+17.5 +14.2 81 +18 +20 по сезону 1004.7 964.7
Местоположение метеостанции Хмельницкий (Хмельницкая область, Украина): широта 49.43 долгота 26.98 высота над уровнем моря 350 м.
В архиве по умолчанию представлена погода в Хмельницком за последнюю неделю. Архивные данные за месяц целиком и за предыдущие месяцы, начиная с января 2011 года, Вы можете получить, выбрав интересующий диапазон дат из раскрывающегося списка и нажав кнопку "Найти!".
*Определитесь, кто Вы:
Внимание! Время в таблицах - всемирное. Для получения местного времени необходимо прибавить поправку, которая равна 2 ч.
Смотрите также архив погоды в соседних городах и на ближайших метеорологических станциях:
Партнеры нашего сайта:      
Пояснения к столбцам:
  • Ветер - указаны скорость ветра в м/с - средняя за 10 мин, порывы в срок и между сроками (в фигурных скобках) и направление, откуда дует ветер: С - северный,
  • СВ - северо-восточный, В - восточный, ЮВ - юго-восточный, Ю - южный, ЮЗ - юго-западный, З - западный, СЗ - северо-западный.
  • Видимость - горизонтальная дальность видимости в метрах или километрах. При видимости от 1 до 10 км при отсутствии осадков обычно наблюдается дымка, при ухудшении видимости до 1 км и менее - туман. В сухую погоду видимость может ухудшаться дымом, пылью или мглою.
  • Явления - указаны атмосферные явления, наблюдавшиеся в срок или в последний час перед сроком; фигурными скобками обозначены явления, наблюдавшиеся между сроками (за 1-3 часа до срока); квадратными скобками обозначены град или гололедные отложения с указанием их диаметра в мм.
  • Облачность - указаны через наклонную черту общая и нижняя облачность в баллах и высота нижней границы облаков в метрах; квадратными скобками обозначены формы облаков: Ci - перистые, Cs - перисто-слоистые, Cc - перисто-кучевые, Ac - высококучевые, As - высокослоистые, Sc - слоисто-кучевые, Ns - слоисто-дождевые, Cu - кучевые, Cb - кучево-дождевые. Подробнее классификацию облаков см. в Атласе облаков (PDF).
  • T - Температура воздуха - температура, измеренная на высоте 2 м над землей.
  • Td - Температура точки росы - температура, при понижении до которой содержащийся в воздухе водяной пар достигнет насыщения.
  • f - Относительная влажность воздуха - влажноcть воздуха, измеренная на высоте 2 м над землей.
  • Te - Эффективная температура - температура, которую ощущает одетый по сезону человек в тени. Характеристика душности погоды. При расчете учитывается влияние влажности воздуха и скорости ветра на теплоощущения человека.
  • Tes - Эффективная температура на солнце - температура, которую ощущает человек, с поправкой на солнечный нагрев. Характеристика знойности погоды. Зависит от высоты солнца над горизонтом, облачности и скорости ветра. Ночью, в пасмурную погоду, а также при ветре 12 м/с и более поправка равна нулю.
  • P - Атмосферное давление - приведенное к уровню моря атмосферное давление.
  • Po - Атмосферное давление - измеренное на уровне метеостанции атмосферное давление.
  • Tmin - Минимальная температура - минимум температуры воздуха на высоте 2 м над землей.
  • Tmax - Максимальная температура - максимум температуры воздуха на высоте 2 м над землей.
  • R - Количество осадков - Количество выпавших осадков за период времени, мм. При наведении курсора мыши на число - период времени, за который выпало указанное количество осадков.
  • R24 - Количество осадков - Количество выпавших осадков за 24 часа, мм.
  • S - Снежный покров - Высота снежного покрова, см. При наведении курсора мыши на число - состояние снежного покрова и степень покрытия местности в баллах.